Back to catalog

KORSAT 7

AliveMilitarySSO
NORAD 58463·PAYLOAD·🇰🇷 South Korea

Launched Dec 1, 2023 from Vandenberg Space Force Base

Loading…

Next Passes (next 24 hours)

TLE

FreshSource: Space-Track

Epoch: Sep 14, 2026, 15:34 UTC

1 58463U 23185B   26257.64910399  .00001313  00000-0  10637-3 0  9996
2 58463  97.6371 320.4305 0026615  24.6252 335.6236 15.01170133152704

Track KORSAT 7 in real time with AllMySat

Download on the App Store